Change the Weather History Date:

Friday, August 2, 2013

  Actual Average Record
Temperature  
Mean Temperature 62 °F -  
Max Temperature 75 °F 83 °F 98 °F (2000)
Min Temperature 48 °F 53 °F 39 °F (1996)
Degree Days  
Heating Degree Days 4    
Growing Degree Days 12 (Base 50)    
Moisture  
Dew Point 33 °F    
Average Humidity 39    
Maximum Humidity 62    
Minimum Humidity 17    
Precipitation  
Precipitation 0.00 in - - ()
Sea Level Pressure  
Sea Level Pressure 30.07 in    
Wind  
Wind Speed 7 mph (WNW)    
Max Wind Speed 14 mph    
Max Gust Speed 17 mph    
Visibility 10 miles    
Events      
Averages and records for this station are not official NWS values.
T = Trace of Precipitation, MM = Missing Value Source: NWS Daily Summary

Daily Weather History Graph

Daily Weather History Graph

Search for Another Location

Airport or City:

Trip Planner

Search our weather history database for the weather conditions in past years. The results will help you decide how hot, cold, wet, or windy it might be!

Date:

Astronomy

Aug. 02, 2013 Rise Set
Actual Time 6:28 AM MDT 8:58 PM MDT
Civil Twilight 5:55 AM MDT 9:30 PM MDT
Nautical Twilight 5:15 AM MDT 10:10 PM MDT
Astronomical Twilight 4:29 AM MDT 10:56 PM MDT
Moon 2:51 AM MDT (8/2) 6:00 PM MDT (8/2)
Length of Visible Light 15h 34m
Length of Day
14h 29m
Waning Crescent, 15% of the Moon is Illuminated
Aug 2
Waning Crescent
Aug 6
New
Aug 14
First Quarter
Aug 20
Full
Aug 28
Last Quarter

Hourly Weather History & Observations

Time (MDT) Temp. Dew Point Humidity Pressure Visibility Wind Dir Wind Speed Gust Speed Precip Events Conditions
12:15 AM 66.2 °F 35.6 °F 32% 30.00 in 10.0 mi North 3.5 mph - N/A   Clear
12:35 AM 66.2 °F 33.8 °F 30% 30.01 in 10.0 mi WNW 4.6 mph - N/A   Clear
12:55 AM 62.6 °F 35.6 °F 37% 30.01 in 10.0 mi West 6.9 mph - N/A   Clear
1:15 AM 60.8 °F 35.6 °F 39% 30.02 in 10.0 mi NW 5.8 mph - N/A   Clear
1:35 AM 60.8 °F 35.6 °F 39% 30.02 in 10.0 mi NNW 8.1 mph - N/A   Clear
1:55 AM 62.6 °F 33.8 °F 34% 30.02 in 10.0 mi NW 9.2 mph - N/A   Clear
2:15 AM 59.0 °F 35.6 °F 42% 30.02 in 10.0 mi NNW 8.1 mph - N/A   Clear
2:35 AM 57.2 °F 33.8 °F 41% 30.03 in 10.0 mi NNW 10.4 mph - N/A   Clear
2:55 AM 57.2 °F 35.6 °F 44% 30.04 in 10.0 mi NNW 10.4 mph - N/A   Clear
3:15 AM 57.2 °F 37.4 °F 48% 30.04 in 10.0 mi NW 10.4 mph - N/A   Clear
3:35 AM 55.4 °F 35.6 °F 47% 30.04 in 10.0 mi NNW 10.4 mph - N/A   Clear
3:55 AM 55.4 °F 35.6 °F 47% 30.05 in 10.0 mi NNW 9.2 mph - N/A   Clear
4:15 AM 53.6 °F 35.6 °F 51% 30.05 in 10.0 mi NNW 6.9 mph - N/A   Clear
4:35 AM 53.6 °F 35.6 °F 51% 30.06 in 10.0 mi NW 5.8 mph - N/A   Clear
4:55 AM 53.6 °F 35.6 °F 51% 30.06 in 10.0 mi NW 4.6 mph - N/A   Clear
5:15 AM 51.8 °F 35.6 °F 54% 30.07 in 10.0 mi WNW 9.2 mph - N/A   Clear
5:35 AM 51.8 °F 35.6 °F 54% 30.08 in 10.0 mi NW 6.9 mph - N/A   Clear
5:55 AM 51.8 °F 35.6 °F 54% 30.08 in 10.0 mi NW 6.9 mph - N/A   Clear
6:15 AM 50.0 °F 35.6 °F 58% 30.09 in 10.0 mi WNW 9.2 mph - N/A   Clear
6:35 AM 50.0 °F 35.6 °F 58% 30.09 in 10.0 mi NW 6.9 mph - N/A   Clear
6:47 AM 48.2 °F 35.6 °F 62% 30.10 in 10.0 mi West 9.2 mph - N/A   Clear
6:55 AM 48.2 °F 35.6 °F 62% 30.10 in 10.0 mi WNW 9.2 mph - N/A   Clear
7:47 AM 50.0 °F 35.6 °F 58% 30.12 in 10.0 mi WNW 9.2 mph - N/A   Clear
8:47 AM 53.6 °F 35.6 °F 51% 30.13 in 10.0 mi NW 5.8 mph - N/A   Clear
9:47 AM 60.8 °F 35.6 °F 39% 30.13 in 10.0 mi SE 3.5 mph - N/A   Clear
10:47 AM 64.4 °F 37.4 °F 37% 30.14 in 10.0 mi ESE 9.2 mph - N/A   Partly Cloudy
11:50 AM 69.8 °F 33.8 °F 27% 30.12 in 10.0 mi SW 4.6 mph - N/A   Scattered Clouds
12:47 PM 69.8 °F 33.8 °F 27% 30.12 in 10.0 mi South 8.1 mph - N/A   Scattered Clouds
1:47 PM 73.4 °F 30.2 °F 20% 30.12 in 10.0 mi SSW 13.8 mph - N/A   Scattered Clouds
2:47 PM 73.4 °F 28.4 °F 19% 30.10 in 10.0 mi South 4.6 mph - N/A   Scattered Clouds
3:50 PM 71.6 °F 24.8 °F 17% 30.11 in 10.0 mi SSW 9.2 mph - N/A   Scattered Clouds
4:50 PM 75.2 °F 28.4 °F 18% 30.09 in 10.0 mi SE 9.2 mph 17.3 mph N/A   Scattered Clouds
5:47 PM 75.2 °F 26.6 °F 17% 30.08 in 10.0 mi SSW 8.1 mph - N/A   Scattered Clouds
6:47 PM 75.2 °F 26.6 °F 17% 30.07 in 10.0 mi SSW 4.6 mph - N/A   Scattered Clouds
7:47 PM 73.4 °F 26.6 °F 18% 30.06 in 10.0 mi South 6.9 mph - N/A   Scattered Clouds
9:47 PM 62.6 °F 33.8 °F 34% 30.09 in 10.0 mi Calm Calm - N/A   Clear
10:47 PM 62.6 °F 28.4 °F 27% 30.10 in 10.0 mi NW 10.4 mph - N/A   Clear
11:15 PM 59.0 °F 30.2 °F 34% 30.11 in 10.0 mi NW 5.8 mph - N/A   Clear
11:35 PM 59.0 °F 28.4 °F 31% 30.11 in 10.0 mi WNW 9.2 mph - N/A   Clear
11:55 PM 59.0 °F 28.4 °F 31% 30.11 in 10.0 mi NW 9.2 mph - N/A   Clear